N4BEW Weather Reports


time (UTC)temp
F
wind
direction
speed
knots
gust
knots
rain 1hr
in
rain 24hr
in
rain mn
in
humidity
%
barometer
mb
20260504230956 75 179 2.6 3.5 0.00 0.00 0.00 41 1016.3
20260504225436 75 157 2.6 2.6 0.00 0.00 0.00 40 1016.3
20260504223932 76 175 1.7 5.2 0.00 0.00 0.00 39 1016.3
20260504222429 76 160 3.5 7.0 0.00 0.00 0.00 38 1016.6
20260504220925 75 161 2.6 2.6 0.00 0.00 0.00 38 1016.6
20260504215422 76 251 1.7 6.1 0.00 0.00 0.00 39 1016.3
20260504213918 77 172 1.7 4.3 0.00 0.00 0.00 38 1016.3
20260504212412 76 110 6.1 7.0 0.00 0.00 0.00 38 1016.3
20260504210908 77 170 3.5 4.3 0.00 0.00 0.00 37 1016.3
20260504205404 76 170 3.5 7.0 0.00 0.00 0.00 36 1016.6
20260504203900 78 124 8.7 8.7 0.00 0.00 0.00 34 1016.6
20260504202341 77 226 3.5 6.1 0.00 0.00 0.00 32 1016.9
20260504200837 76 154 2.6 5.2 0.00 0.00 0.00 40 1016.9
20260504195333 77 186 1.7 1.7 0.00 0.00 0.00 36 1017.3
20260504193812 77 122 2.6 3.5 0.00 0.00 0.00 36 1017.3
20260504192308 78 331 3.5 5.2 0.00 0.00 0.00 35 1017.6
20260504190804 77 228 1.7 3.5 0.00 0.00 0.00 36 1017.6
20260504185301 76 308 5.2 5.2 0.00 0.00 0.00 36 1017.9
20260504183756 76 204 0.9 5.2 0.00 0.00 0.00 34 1018.3
20260504182252 75 173 1.7 2.6 0.00 0.00 0.00 37 1018.3
20260504180733 76 286 1.7 2.6 0.00 0.00 0.00 39 1018.6
20260504175229 76 165 5.2 5.2 0.00 0.00 0.00 39 1018.6
20260504173710 74 202 2.6 5.2 0.00 0.00 0.00 42 1019.0
20260504172206 76 129 1.7 4.3 0.00 0.00 0.00 42 1019.3
20260504170701 73 290 2.6 5.2 0.00 0.00 0.00 43 1019.3
20260504150634 69 177 2.6 4.3 0.00 0.00 0.00 50 1020.3
20260504140619 63 148 1.7 2.6 0.00 0.00 0.00 60 1020.7
20260504130547 53 172 0.9 1.7 0.00 0.00 0.00 86 1020.7
20260504110457 43 215 0.0 0.0 0.00 0.00 0.00 96 1019.6
20260504100431 44 204 0.0 0.0 0.00 0.00 0.00 94 1019.6
20260504081901 46 206 0.0 0.0 0.00 0.00 0.00 90 1020.0
20260504080358 46 206 0.0 0.0 0.00 0.00 0.00 89 1020.0
20260504070328 48 232 0.0 0.0 0.00 0.00 0.00 88 1020.3
20260504050240 51 222 0.0 1.7 0.00 0.00 0.00 77 1020.7
20260504044736 52 220 0.0 0.0 0.00 0.00 0.00 76 1021.0
20260504043232 52 225 0.0 0.0 0.00 0.00 0.00 73 1020.7
20260504041728 52 227 0.0 0.0 0.00 0.00 0.00 71 1020.7
20260504040222 53 225 0.0 0.0 0.00 0.00 0.00 72 1020.7
20260504034718 53 224 0.0 0.0 0.00 0.00 0.00 71 1020.7
20260504033212 53 219 0.0 0.0 0.00 0.00 0.00 70 1020.7
20260504031708 54 224 0.0 0.0 0.00 0.00 0.00 71 1020.7
20260504030205 54 221 0.0 0.0 0.00 0.00 0.00 70 1020.7
20260504024700 55 223 0.0 0.0 0.00 0.00 0.00 69 1020.7
20260504023157 55 222 0.0 0.0 0.00 0.00 0.00 68 1020.3
20260504021653 56 222 0.0 0.0 0.00 0.00 0.00 67 1020.3
20260504020149 56 244 0.0 0.0 0.00 0.00 0.00 65 1020.0
20260504014646 57 231 0.0 0.0 0.00 0.00 0.00 65 1019.6
20260504013142 57 229 0.0 0.0 0.00 0.00 0.00 64 1019.6
20260504011623 58 234 0.0 0.0 0.00 0.00 0.00 61 1019.3
20260504010120 60 216 0.0 0.0 0.00 0.00 0.00 60 1019.3
20260504004614 61 217 0.0 0.0 0.00 0.00 0.00 56 1019.3
20260504003110 63 244 0.0 0.0 0.00 0.00 0.00 53 1019.0